Regional Weather Roundup
Issued by NWS

Home | Current Version | Previous Version | Graphics & Text | Print | Product List | Glossary On
Versions: 1 2 3 4 5 6 7 8 9 10 11 12 13 14 15 16 17 18 19 20 21 22 23 24 25 26 27 28 29 30 31 32 33 34 35 36 37 38 39 40 41 42 43 44 45 46 47 48 49 50
000
ASUS43 KBIS 250010
RWRND

NORTH DAKOTA REGIONAL WEATHER ROUNDUP
NATIONAL WEATHER SERVICE BISMARCK ND
700 PM CDT SUN MAY 24 2015

NOTE: "FAIR" INDICATES FEW OR NO CLOUDS BELOW 12,000 FEET WITH NO
SIGNIFICANT WEATHER AND/OR OBSTRUCTIONS TO VISIBILITY.


NDZ001>003-009>011-017-250100-
NORTHWEST NORTH DAKOTA

CITY           SKY/WX    TMP DP  RH WIND       PRES   REMARKS
WILLISTON      SUNNY     75  37  25 SE17G25   29.91F
6HR MIN TEMP:  72; 6HR MAX TEMP:  78;

MINOT          PTSUNNY   72  41  32 E10G21    29.91F
MINOT AFB      PTSUNNY   74  44  33 SE8       29.90F
$$

NDZ018>021-031>035-040>046-250100-
SOUTHWEST NORTH DAKOTA

CITY           SKY/WX    TMP DP  RH WIND       PRES   REMARKS
BISMARCK       CLOUDY    65  50  58 E9        29.90F
6HR MIN TEMP:  64; 6HR MAX TEMP:  69; 6HR PCP: TRACE;

DICKINSON      CLOUDY    64  49  57 E12       29.91F
GARRISON         N/A     69  47  45 SE8       29.92F
6HR MIN TEMP:  68; 6HR MAX TEMP:  71;

HETTINGER ARPT CLOUDY    61  49  64 NE12      29.92F
$$

NDZ004>008-012>016-024-026-027-054-250100-
NORTHEAST NORTH DAKOTA

CITY           SKY/WX    TMP DP  RH WIND       PRES   REMARKS
GRAND FORKS    CLOUDY    74  49  41 E6        29.90F
GRND FRKS AFB  CLOUDY    73  50  43 SE7       29.90F
DEVILS LAKE    CLOUDY    70  48  46 SE8       29.92F
$$

NDZ022-023-025-028>030-036>039-047>053-250100-
SOUTHEAST NORTH DAKOTA

CITY           SKY/WX    TMP DP  RH WIND       PRES   REMARKS
FARGO          CLOUDY    69  53  56 SE8       29.89F
6HR MIN TEMP:  68; 6HR MAX TEMP:  71;

JAMESTOWN      CLOUDY    63  51  65 SE9       29.90F
$$




USA.gov is the U.S. government's official web portal to all federal, state and local government web resources and services.